This demonstration page uses our WeatherBlox Daily Observations layout. Learn more.

Left ArrowRight Arrow

34.16533, -84.80231

Hourly Observations for August 3, 2018

Temp ( °F °C ) Dew Point ( °F °C ) Humidity (%) Winds ( mph kmh ) Pressure ( in mb ) Visibility ( mi km ) Precip ( " mm )
12:11 am 00:11 Mostly Cloudy 71 21.7 71 21.7 100 100 Calm 30.03 1017 10 16 0.00 0.03
12:53 am 00:53 Cloudy 71 21.7 71 21.7 100 100 Calm 30.02 1017 10 16 0.00 0.03
1:46 am 01:46 Cloudy 71 21.7 71 21.7 100 100 Calm 30.03 1017 10 16 0.00 0.00
1:53 am 01:53 Cloudy 71 21.7 71 21.7 100 100 Calm 30.02 1017 10 16 0.00 0.00
2:31 am 02:31 Cloudy 71 21.7 71 21.7 100 100 Calm 30.03 1017 10 16 0.00 0.00
2:53 am 02:53 Cloudy 71 21.7 71 21.7 100 100 Calm 30.01 1016 10 16 0.00 0.00
3:53 am 03:53 Cloudy with Light Rain 70 21.1 70 21.1 100 100 Calm 30.03 1017 9 14 0.00 0.03
4:53 am 04:53 Cloudy 70 21.1 70 21.1 100 100 Calm 30.04 1017 10 16 0.02 0.51
5:28 am 05:28 Cloudy 71 21.7 71 21.7 100 100 Calm 30.06 1018 10 16 0.00 0.00
5:45 am 05:45 Cloudy 71 21.7 71 21.7 100 100 Calm 30.06 1018 10 16 0.00 0.00
5:53 am 05:53 Cloudy 71 21.7 71 21.7 100 100 Calm 30.05 1018 9 14 0.00 0.00
6:53 am 06:53 Cloudy 71 21.7 71 21.7 100 100 Calm 30.07 1018 10 16 0.00 0.00
7:44 am 07:44 Cloudy 71 21.7 71 21.7 100 100 Calm 30.09 1019 10 16 0.00 0.00
7:53 am 07:53 Cloudy 71 21.7 71 21.7 100 100 Calm 30.08 1019 10 16 0.00 0.00
8:00 am 08:00 Cloudy 71 21.7 71 21.7 100 100 Calm 30.09 1019 10 16 0.00 0.00
8:53 am 08:53 Cloudy 72 22.2 71 21.7 97 97 Calm 30.09 1019 10 16 0.00 0.00
9:53 am 09:53 Cloudy 73 22.8 71 21.7 94 94 Calm 30.11 1020 10 16 0.00 0.00
10:20 am 10:20 Cloudy 74 23.3 72 22.2 94 94 Calm 30.12 1020 10 16 0.00 0.00
10:53 am 10:53 Cloudy 77 25 72 22.2 85 85 Calm 30.11 1020 10 16 0.00 0.00
11:45 am 11:45 Mostly Sunny 79 26.1 71 21.7 77 77 Calm 30.09 1019 10 16 0.00 0.00
11:53 am 11:53 Partly Cloudy 80 26.7 72 22.2 76 76 VRB 5 7 30.11 1020 10 16 0.00 0.00
12:01 pm 12:01 Mostly Cloudy 79 26.1 71 21.7 77 77 N 5 7 30.09 1019 10 16 0.00 0.00
12:12 pm 12:12 Mostly Cloudy 80 26.7 71 21.7 74 74 N 5 7 30.09 1019 10 16 0.00 0.00
12:36 pm 12:36 Cloudy 79 26.1 71 21.7 77 77 NE 3 6 30.09 1019 10 16 0.00 0.00
12:53 pm 12:53 Cloudy 78 25.6 71 21.7 79 79 Calm 30.11 1020 10 16 0.00 0.00
1:14 pm 13:14 Cloudy 80 26.7 71 21.7 74 74 Calm 30.09 1019 10 16 0.00 0.00
1:53 pm 13:53 Mostly Cloudy 82 27.8 72 22.2 72 72 Calm 30.09 1019 10 16 0.00 0.00
2:53 pm 14:53 Mostly Cloudy 84 28.9 71 21.7 65 65 Calm 30.08 1019 10 16 0.00 0.00
3:53 pm 15:53 Sunny 86 30 70 21.1 59 59 VRB 3 6 30.06 1018 10 16 0.00 0.00
4:53 pm 16:53 Mostly Sunny 86 30 70 21.1 59 59 Calm 30.05 1018 10 16 0.00 0.00
5:53 pm 17:53 Mostly Sunny 85 29.4 69 20.6 59 59 Calm 30.04 1017 10 16 0.00 0.00
6:53 pm 18:53 Sunny 84 28.9 70 21.1 63 63 VRB 3 6 30.04 1017 10 16 0.00 0.00
7:53 pm 19:53 Sunny 79 26.1 75 23.9 88 88 Calm 30.06 1018 10 16 0.00 0.00
8:53 pm 20:53 Clear 74 23.3 74 23.3 100 100 Calm 30.08 1019 10 16 0.00 0.00
9:53 pm 21:53 Clear 73 22.8 73 22.8 100 100 Calm 30.09 1019 10 16 0.00 0.00
10:53 pm 22:53 Clear 72 22.2 72 22.2 100 100 Calm 30.11 1020 10 16 0.00 0.00
11:53 pm 23:53 Clear 71 21.7 71 21.7 100 100 Calm 30.11 1020 10 16 0.00 0.00

Powered by AerisWeather